| time (UTC) | temp F | wind direction | speed MPH | gust MPH | rain 1hr in | rain 24hr in | rain mn in | humidity % | barometer mb |
| 20260509014700 | 46 | 108 | 0.0 | 0.0 | 0.00 | 0.00 | 0.00 | 64 | 1012.0 |
| 20260509013216 | 47 | 301 | 0.0 | 0.0 | 0.00 | 0.00 | 0.00 | 61 | 1012.0 |
| 20260509012216 | 47 | 301 | 0.0 | 0.0 | 0.00 | 0.00 | 0.00 | 60 | 1011.8 |
| 20260509011216 | 48 | 301 | 0.0 | 0.0 | 0.00 | 0.00 | 0.00 | 58 | 1011.4 |
| 20260509010216 | 48 | 301 | 0.0 | 0.0 | 0.00 | 0.00 | 0.00 | 57 | 1011.4 |
| 20260509005214 | 49 | 301 | 0.0 | 0.0 | 0.00 | 0.00 | 0.00 | 56 | 1011.2 |
| 20260509004208 | 49 | 108 | 0.0 | 0.0 | 0.00 | 0.00 | 0.00 | 54 | 1010.7 |
| 20260509003208 | 50 | 301 | 0.0 | 0.0 | 0.00 | 0.00 | 0.00 | 54 | 1010.7 |
| 20260509002207 | 51 | 301 | 0.0 | 0.0 | 0.00 | 0.00 | 0.00 | 52 | 1010.5 |
| 20260509001209 | 51 | 301 | 0.0 | 0.0 | 0.00 | 0.00 | 0.00 | 51 | 1010.3 |
| 20260509000208 | 52 | 301 | 0.0 | 3.0 | 0.00 | 0.00 | 0.00 | 50 | 1010.3 |
| 20260508235208 | 53 | 301 | 0.0 | 2.0 | 0.00 | 0.00 | 0.00 | 49 | 1010.1 |
| 20260508234647 | 53 | 301 | 2.0 | 8.0 | 0.00 | 0.00 | 0.00 | 47 | 1009.7 |
| 20260508233640 | 53 | 301 | 1.0 | 2.0 | 0.00 | 0.00 | 0.00 | 46 | 1009.7 |
| 20260508232205 | 54 | 273 | 2.0 | 6.0 | 0.00 | 0.00 | 0.00 | 44 | 1009.6 |
| 20260508231203 | 54 | 301 | 1.0 | 5.0 | 0.00 | 0.00 | 0.00 | 43 | 1009.2 |
| 20260508230202 | 55 | 301 | 2.0 | 4.0 | 0.00 | 0.00 | 0.00 | 44 | 1009.2 |
| 20260508225641 | 55 | 283 | 2.0 | 6.0 | 0.00 | 0.00 | 0.00 | 43 | 1009.1 |
| 20260508224157 | 55 | 301 | 2.0 | 8.0 | 0.00 | 0.00 | 0.00 | 43 | 1009.1 |
| 20260508223158 | 56 | 301 | 1.0 | 4.0 | 0.00 | 0.00 | 0.00 | 45 | 1009.1 |
| 20260508222155 | 56 | 301 | 2.0 | 4.0 | 0.00 | 0.00 | 0.00 | 43 | 1009.1 |
| 20260508221156 | 56 | 88 | 2.0 | 5.0 | 0.00 | 0.00 | 0.00 | 42 | 1009.0 |
| 20260508220156 | 56 | 301 | 1.0 | 5.0 | 0.00 | 0.00 | 0.00 | 45 | 1009.0 |
| 20260508215156 | 57 | 301 | 3.0 | 8.0 | 0.00 | 0.00 | 0.00 | 41 | 1009.0 |
| 20260508214156 | 57 | 260 | 2.0 | 6.0 | 0.00 | 0.00 | 0.00 | 41 | 1008.8 |
| 20260508213629 | 58 | 301 | 3.0 | 9.0 | 0.00 | 0.00 | 0.00 | 42 | 1008.8 |
| 20260508212157 | 58 | 301 | 2.0 | 8.0 | 0.00 | 0.00 | 0.00 | 41 | 1008.7 |
| 20260508211622 | 58 | 301 | 2.0 | 5.0 | 0.00 | 0.00 | 0.00 | 41 | 1008.6 |
| 20260508210145 | 58 | 244 | 2.0 | 5.0 | 0.00 | 0.00 | 0.00 | 40 | 1008.6 |
| 20260508205139 | 58 | 285 | 3.0 | 9.0 | 0.00 | 0.00 | 0.00 | 39 | 1008.6 |
| 20260508204615 | 58 | 277 | 2.0 | 6.0 | 0.00 | 0.00 | 0.00 | 39 | 1008.5 |
| 20260508204101 | 58 | 292 | 1.0 | 5.0 | 0.00 | 0.00 | 0.00 | 41 | 1008.5 |
| 20260508202127 | 58 | 158 | 2.0 | 5.0 | 0.00 | 0.00 | 0.00 | 41 | 1008.4 |
| 20260508201125 | 59 | 182 | 3.0 | 7.0 | 0.00 | 0.00 | 0.00 | 40 | 1008.4 |
| 20260508200123 | 59 | 275 | 3.0 | 9.0 | 0.00 | 0.00 | 0.00 | 44 | 1008.4 |
| 20260508195123 | 59 | 232 | 3.0 | 8.0 | 0.00 | 0.00 | 0.00 | 40 | 1008.5 |
| 20260508194602 | 59 | 200 | 3.0 | 14.0 | 0.00 | 0.00 | 0.00 | 42 | 1008.5 |
| 20260508193107 | 59 | 237 | 3.0 | 6.0 | 0.00 | 0.00 | 0.00 | 42 | 1008.5 |
| 20260508192103 | 60 | 329 | 2.0 | 8.0 | 0.00 | 0.00 | 0.00 | 41 | 1008.6 |
| 20260508191041 | 60 | 306 | 3.0 | 7.0 | 0.00 | 0.00 | 0.00 | 44 | 1008.6 |
| 20260508190039 | 60 | 272 | 3.0 | 8.0 | 0.00 | 0.00 | 0.00 | 45 | 1008.6 |
| 20260508185038 | 59 | 285 | 3.0 | 10.0 | 0.00 | 0.00 | 0.00 | 40 | 1008.6 |
| 20260508184034 | 60 | 134 | 3.0 | 9.0 | 0.00 | 0.00 | 0.00 | 43 | 1008.6 |
| 20260508183033 | 60 | 306 | 3.0 | 10.0 | 0.00 | 0.00 | 0.00 | 41 | 1008.6 |
| 20260508182033 | 60 | 286 | 3.0 | 8.0 | 0.00 | 0.00 | 0.00 | 39 | 1008.6 |
| 20260508181034 | 60 | 301 | 2.0 | 7.0 | 0.00 | 0.00 | 0.00 | 39 | 1008.3 |
| 20260508180020 | 59 | 269 | 2.0 | 5.0 | 0.00 | 0.00 | 0.00 | 41 | 1008.4 |
| 20260508175019 | 59 | 17 | 2.0 | 7.0 | 0.00 | 0.00 | 0.00 | 39 | 1008.4 |
| 20260508174500 | 60 | 296 | 3.0 | 7.0 | 0.00 | 0.00 | 0.00 | 41 | 1008.6 |
| 20260508173019 | 60 | 234 | 3.0 | 7.0 | 0.00 | 0.00 | 0.00 | 41 | 1008.6 |
| 20260508172020 | 60 | 243 | 2.0 | 6.0 | 0.00 | 0.00 | 0.00 | 42 | 1008.6 |
| 20260508171934 | 60 | 29 | 3.0 | 7.0 | 0.00 | 0.00 | 0.00 | 44 | 1008.4 |
| 20260508170451 | 59 | 227 | 3.0 | 13.0 | 0.00 | 0.00 | 0.00 | 44 | 1008.6 |
| 20260508165003 | 59 | 202 | 3.0 | 7.0 | 0.00 | 0.00 | 0.00 | 46 | 1008.6 |
| 20260508164003 | 59 | 227 | 3.0 | 7.0 | 0.00 | 0.00 | 0.00 | 41 | 1008.6 |
| 20260508163003 | 60 | 252 | 3.0 | 7.0 | 0.00 | 0.00 | 0.00 | 43 | 1008.5 |
| 20260508161957 | 60 | 292 | 2.0 | 5.0 | 0.00 | 0.00 | 0.00 | 44 | 1008.5 |
| 20260508161439 | 60 | 276 | 2.0 | 7.0 | 0.00 | 0.00 | 0.00 | 52 | 1008.6 |
| 20260508155956 | 61 | 114 | 2.0 | 7.0 | 0.00 | 0.00 | 0.00 | 44 | 1008.8 |
| 20260508155430 | 60 | 329 | 2.0 | 5.0 | 0.00 | 0.00 | 0.00 | 46 | 1008.8 |
| 20260508153952 | 60 | 318 | 3.0 | 7.0 | 0.00 | 0.00 | 0.00 | 47 | 1009.0 |
| 20260508152951 | 60 | 283 | 3.0 | 6.0 | 0.00 | 0.00 | 0.00 | 47 | 1009.1 |
| 20260508151952 | 59 | 287 | 3.0 | 7.0 | 0.00 | 0.00 | 0.00 | 46 | 1009.1 |
| 20260508150938 | 58 | 105 | 3.0 | 8.0 | 0.00 | 0.00 | 0.00 | 47 | 1009.1 |
| 20260508150419 | 58 | 6 | 3.0 | 9.0 | 0.00 | 0.00 | 0.00 | 47 | 1009.2 |
| 20260508144938 | 58 | 279 | 3.0 | 8.0 | 0.00 | 0.00 | 0.00 | 46 | 1009.2 |
| 20260508143939 | 57 | 272 | 2.0 | 5.0 | 0.00 | 0.00 | 0.00 | 48 | 1009.3 |
| 20260508142936 | 56 | 267 | 2.0 | 5.0 | 0.00 | 0.00 | 0.00 | 49 | 1009.4 |
| 20260508141934 | 56 | 301 | 2.0 | 5.0 | 0.00 | 0.00 | 0.00 | 46 | 1009.4 |
| 20260508140935 | 55 | 301 | 3.0 | 8.0 | 0.00 | 0.00 | 0.00 | 46 | 1009.3 |
| 20260508140842 | 55 | 301 | 3.0 | 7.0 | 0.00 | 0.00 | 0.00 | 50 | 1009.7 |
| 20260508134930 | 54 | 358 | 3.0 | 7.0 | 0.00 | 0.00 | 0.00 | 49 | 1009.7 |
| 20260508134418 | 54 | 296 | 2.0 | 6.0 | 0.00 | 0.00 | 0.00 | 52 | 1009.7 |
| 20260508132928 | 53 | 126 | 3.0 | 7.0 | 0.00 | 0.00 | 0.00 | 49 | 1009.7 |
| 20260508131929 | 53 | 215 | 2.0 | 4.0 | 0.00 | 0.00 | 0.00 | 51 | 1009.7 |
| 20260508130927 | 51 | 338 | 2.0 | 6.0 | 0.00 | 0.00 | 0.00 | 56 | 1009.7 |
| 20260508125926 | 50 | 237 | 1.0 | 5.0 | 0.00 | 0.00 | 0.00 | 57 | 1009.8 |
| 20260508125416 | 49 | 301 | 2.0 | 8.0 | 0.00 | 0.00 | 0.00 | 59 | 1009.8 |
| 20260508123927 | 48 | 301 | 2.0 | 6.0 | 0.00 | 0.00 | 0.00 | 62 | 1009.8 |
| 20260508122926 | 47 | 50 | 0.0 | 6.0 | 0.00 | 0.00 | 0.00 | 63 | 1009.8 |
| 20260508121927 | 46 | 101 | 1.0 | 3.0 | 0.00 | 0.00 | 0.00 | 64 | 1009.8 |
| 20260508120926 | 45 | 220 | 0.0 | 2.0 | 0.00 | 0.00 | 0.00 | 70 | 1009.9 |
| 20260508115922 | 43 | 301 | 1.0 | 3.0 | 0.00 | 0.00 | 0.00 | 72 | 1009.9 |
| 20260508114912 | 42 | 204 | 1.0 | 3.0 | 0.00 | 0.00 | 0.00 | 73 | 1009.9 |
| 20260508113912 | 40 | 301 | 0.0 | 0.0 | 0.00 | 0.00 | 0.00 | 77 | 1009.8 |
| 20260508112913 | 39 | 301 | 0.0 | 0.0 | 0.00 | 0.00 | 0.00 | 80 | 1009.7 |
| 20260508111906 | 38 | 183 | 0.0 | 0.0 | 0.00 | 0.00 | 0.00 | 82 | 1009.7 |
| 20260508110908 | 38 | 301 | 0.0 | 0.0 | 0.00 | 0.00 | 0.00 | 82 | 1009.7 |
| 20260508110339 | 37 | 183 | 0.0 | 0.0 | 0.00 | 0.00 | 0.00 | 82 | 1009.7 |
| 20260508105347 | 36 | 183 | 0.0 | 0.0 | 0.00 | 0.00 | 0.00 | 82 | 1009.7 |
| 20260508104347 | 36 | 183 | 0.0 | 0.0 | 0.00 | 0.00 | 0.00 | 82 | 1009.5 |
| 20260508102853 | 36 | 177 | 0.0 | 0.0 | 0.00 | 0.00 | 0.00 | 82 | 1009.2 |
| 20260508101850 | 36 | 183 | 1.0 | 2.0 | 0.00 | 0.00 | 0.00 | 82 | 1009.2 |
| 20260508100849 | 36 | 183 | 1.0 | 2.0 | 0.00 | 0.00 | 0.00 | 81 | 1008.8 |
| 20260508095850 | 36 | 183 | 0.0 | 1.0 | 0.00 | 0.00 | 0.00 | 82 | 1009.0 |
| 20260508094838 | 36 | 182 | 0.0 | 2.0 | 0.00 | 0.00 | 0.00 | 82 | 1009.0 |
| 20260508093839 | 36 | 182 | 0.0 | 0.0 | 0.00 | 0.00 | 0.00 | 81 | 1008.7 |
| 20260508092838 | 35 | 301 | 0.0 | 2.0 | 0.00 | 0.00 | 0.00 | 81 | 1008.8 |
| 20260508091836 | 36 | 301 | 0.0 | 2.0 | 0.00 | 0.00 | 0.00 | 81 | 1008.8 |
| 20260508090836 | 36 | 301 | 0.0 | 2.0 | 0.00 | 0.00 | 0.00 | 81 | 1008.6 |
| 20260508085835 | 36 | 301 | 0.0 | 2.0 | 0.00 | 0.00 | 0.00 | 80 | 1008.6 |
| 20260508084822 | 36 | 301 | 0.0 | 0.0 | 0.00 | 0.00 | 0.00 | 79 | 1008.6 |
| 20260508083822 | 36 | 301 | 0.0 | 2.0 | 0.00 | 0.00 | 0.00 | 79 | 1008.6 |
| 20260508082821 | 36 | 301 | 0.0 | 1.0 | 0.00 | 0.00 | 0.00 | 79 | 1008.4 |
| 20260508081820 | 36 | 301 | 0.0 | 1.0 | 0.00 | 0.00 | 0.00 | 78 | 1008.4 |
| 20260508080815 | 36 | 301 | 0.0 | 0.0 | 0.00 | 0.00 | 0.00 | 78 | 1008.2 |
| 20260508075815 | 37 | 301 | 0.0 | 1.0 | 0.00 | 0.00 | 0.00 | 78 | 1008.1 |
| 20260508074812 | 37 | 301 | 1.0 | 2.0 | 0.00 | 0.00 | 0.00 | 78 | 1008.1 |
| 20260508073814 | 37 | 301 | 0.0 | 0.0 | 0.00 | 0.01 | 0.00 | 78 | 1007.6 |
| 20260508072813 | 37 | 301 | 0.0 | 0.0 | 0.00 | 0.01 | 0.00 | 79 | 1007.6 |
| 20260508071812 | 37 | 301 | 0.0 | 0.0 | 0.00 | 0.01 | 0.00 | 77 | 1007.6 |
| 20260508071252 | 38 | 301 | 0.0 | 0.0 | 0.00 | 0.01 | 0.00 | 77 | 1007.5 |
| 20260508070248 | 38 | 301 | 0.0 | 0.0 | 0.00 | 0.01 | 0.00 | 77 | 1007.5 |
| 20260508064803 | 38 | 301 | 0.0 | 0.0 | 0.00 | 0.01 | 0.00 | 77 | 1007.5 |
| 20260508063803 | 38 | 301 | 0.0 | 1.0 | 0.00 | 0.01 | 0.00 | 77 | 1007.6 |
| 20260508063248 | 38 | 301 | 0.0 | 1.0 | 0.00 | 0.01 | 0.00 | 76 | 1007.6 |
| 20260508062238 | 39 | 301 | 0.0 | 2.0 | 0.00 | 0.01 | 0.00 | 76 | 1007.6 |
| 20260508060802 | 39 | 301 | 0.0 | 2.0 | 0.00 | 0.01 | 0.00 | 75 | 1007.6 |
| 20260508055804 | 40 | 301 | 0.0 | 0.0 | 0.00 | 0.01 | 0.00 | 74 | 1007.7 |
| 20260508055236 | 40 | 301 | 0.0 | 0.0 | 0.00 | 0.01 | 0.00 | 74 | 1007.7 |
| 20260508054231 | 40 | 301 | 0.0 | 0.0 | 0.00 | 0.01 | 0.00 | 74 | 1007.9 |
| 20260508053238 | 40 | 301 | 0.0 | 0.0 | 0.00 | 0.01 | 0.00 | 73 | 1008.1 |
| 20260508051756 | 41 | 301 | 0.0 | 0.0 | 0.00 | 0.01 | 0.00 | 72 | 1008.1 |
| 20260508050757 | 41 | 301 | 0.0 | 0.0 | 0.00 | 0.01 | 0.00 | 70 | 1008.1 |
| 20260508050239 | 41 | 301 | 0.0 | 0.0 | 0.00 | 0.01 | 0.00 | 70 | 1008.2 |
| 20260508045226 | 42 | 301 | 0.0 | 0.0 | 0.00 | 0.01 | 0.00 | 69 | 1008.2 |
| 20260508043746 | 42 | 301 | 0.0 | 0.0 | 0.00 | 0.01 | 0.00 | 69 | 1008.3 |
| 20260508042745 | 42 | 64 | 0.0 | 0.0 | 0.00 | 0.01 | 0.00 | 68 | 1008.3 |
| 20260508041742 | 43 | 64 | 0.0 | 0.0 | 0.00 | 0.02 | 0.00 | 66 | 1008.3 |
| 20260508040743 | 43 | 65 | 0.0 | 0.0 | 0.00 | 0.02 | 0.00 | 65 | 1008.3 |
| 20260508035741 | 44 | 301 | 0.0 | 0.0 | 0.00 | 0.02 | 0.02 | 65 | 1008.2 |
| 20260508034741 | 44 | 65 | 0.0 | 0.0 | 0.00 | 0.02 | 0.02 | 64 | 1008.2 |
| 20260508033742 | 44 | 65 | 0.0 | 0.0 | 0.00 | 0.04 | 0.02 | 65 | 1008.2 |
| 20260508033222 | 45 | 301 | 1.0 | 2.0 | 0.00 | 0.04 | 0.02 | 65 | 1008.2 |
| 20260508031739 | 45 | 14 | 0.0 | 3.0 | 0.00 | 0.04 | 0.02 | 63 | 1008.2 |
| 20260508030740 | 46 | 205 | 0.0 | 0.0 | 0.00 | 0.04 | 0.02 | 64 | 1008.1 |
| 20260508025740 | 46 | 205 | 0.0 | 0.0 | 0.00 | 0.04 | 0.02 | 62 | 1008.1 |
| 20260508024739 | 46 | 205 | 0.0 | 0.0 | 0.00 | 0.04 | 0.02 | 60 | 1008.1 |
| 20260508023740 | 47 | 205 | 0.0 | 2.0 | 0.00 | 0.04 | 0.02 | 59 | 1008.1 |
| 20260508022741 | 47 | 204 | 0.0 | 2.0 | 0.00 | 0.04 | 0.02 | 60 | 1008.0 |
| 20260508021725 | 48 | 301 | 0.0 | 0.0 | 0.00 | 0.05 | 0.02 | 61 | 1008.0 |
| 20260508021200 | 48 | 301 | 0.0 | 0.0 | 0.00 | 0.05 | 0.02 | 58 | 1008.1 |
| 20260508015724 | 48 | 301 | 0.0 | 2.0 | 0.00 | 0.05 | 0.02 | 57 | 1008.1 |